| time (UTC) | temp C | wind direction | speed KPH | gust KPH | rain 1hr cm | rain 24hr cm | rain mn cm | humidity % | barometer mb |
| 20260903191615 | 13 | 246 | 0.0 | 4.8 | 0.00 | 1.27 | 0.15 | 85 | 1012.6 |
| 20260903191327 | 13 | 188 | 0.0 | 4.8 | 0.00 | 1.27 | 0.15 | 87 | 1012.7 |
| 20260903190556 | 13 | 188 | 0.0 | 0.0 | 0.00 | 1.27 | 0.15 | 87 | 1012.6 |
| 20260903190303 | 13 | 188 | 0.0 | 4.8 | 0.00 | 1.27 | 0.15 | 88 | 1012.6 |
| 20260903185542 | 13 | 188 | 0.0 | 4.8 | 0.00 | 1.27 | 0.15 | 87 | 1012.6 |
| 20260903185038 | 13 | 188 | 0.0 | 4.8 | 0.00 | 1.27 | 0.15 | 88 | 1012.6 |
| 20260903184535 | 13 | 145 | 0.0 | 4.8 | 0.00 | 1.27 | 0.15 | 89 | 1012.4 |
| 20260903184250 | 13 | 140 | 0.0 | 4.8 | 0.00 | 1.27 | 0.15 | 89 | 1012.4 |
| 20260903183524 | 13 | 145 | 1.6 | 4.8 | 0.00 | 1.27 | 0.15 | 91 | 1012.4 |
| 20260903183019 | 12 | 340 | 1.6 | 4.8 | 0.00 | 1.27 | 0.15 | 92 | 1012.2 |
| 20260903182517 | 12 | 223 | 0.0 | 3.2 | 0.00 | 1.27 | 0.15 | 93 | 1012.2 |
| 20260903182016 | 12 | 223 | 0.0 | 6.4 | 0.00 | 1.27 | 0.15 | 92 | 1012.4 |
| 20260903181518 | 12 | 231 | 1.6 | 11.3 | 0.00 | 1.27 | 0.15 | 92 | 1012.2 |
| 20260903181017 | 12 | 259 | 0.0 | 11.3 | 0.00 | 1.27 | 0.15 | 91 | 1012.2 |
| 20260903180738 | 12 | 247 | 0.0 | 6.4 | 0.00 | 1.27 | 0.15 | 92 | 1012.6 |
| 20260903180017 | 12 | 176 | 0.0 | 6.4 | 0.00 | 1.27 | 0.15 | 91 | 1012.6 |
| 20260903175512 | 12 | 176 | 1.6 | 6.4 | 0.00 | 1.27 | 0.15 | 92 | 1012.6 |
| 20260903174957 | 12 | 325 | 0.0 | 8.0 | 0.00 | 1.27 | 0.15 | 92 | 1012.6 |
| 20260903174453 | 12 | 171 | 1.6 | 11.3 | 0.00 | 1.27 | 0.15 | 93 | 1012.5 |
| 20260903173952 | 12 | 329 | 1.6 | 12.9 | 0.00 | 1.27 | 0.15 | 94 | 1012.6 |
| 20260903173454 | 12 | 317 | 3.2 | 12.9 | 0.00 | 1.27 | 0.15 | 95 | 1012.6 |
| 20260903173217 | 12 | 249 | 0.0 | 11.3 | 0.00 | 1.27 | 0.15 | 95 | 1012.5 |
| 20260903172448 | 12 | 218 | 0.0 | 14.5 | 0.00 | 1.27 | 0.15 | 95 | 1012.4 |
| 20260903171951 | 11 | 204 | 1.6 | 14.5 | 0.00 | 1.27 | 0.15 | 96 | 1012.4 |
| 20260903171715 | 12 | 169 | 3.2 | 12.9 | 0.03 | 1.27 | 0.15 | 97 | 1012.1 |
| 20260903170938 | 11 | 199 | 1.6 | 8.0 | 0.03 | 1.27 | 0.15 | 98 | 1012.1 |
| 20260903170429 | 11 | 145 | 3.2 | 8.0 | 0.03 | 1.27 | 0.15 | 98 | 1012.1 |
| 20260903165924 | 11 | 153 | 0.0 | 4.8 | 0.03 | 1.27 | 0.15 | 98 | 1012.0 |
| 20260903165424 | 11 | 138 | 0.0 | 4.8 | 0.03 | 1.27 | 0.15 | 98 | 1012.0 |
| 20260903164924 | 11 | 126 | 0.0 | 6.4 | 0.03 | 1.27 | 0.15 | 97 | 1011.9 |
| 20260903164415 | 11 | 92 | 1.6 | 6.4 | 0.03 | 1.27 | 0.15 | 98 | 1012.0 |
| 20260903163914 | 11 | 29 | 1.6 | 4.8 | 0.03 | 1.27 | 0.15 | 98 | 1011.9 |
| 20260903163416 | 11 | 25 | 0.0 | 0.0 | 0.03 | 1.27 | 0.15 | 98 | 1011.8 |
| 20260903162909 | 11 | 25 | 0.0 | 0.0 | 0.03 | 1.27 | 0.15 | 98 | 1011.8 |
| 20260903162356 | 10 | 25 | 0.0 | 0.0 | 0.03 | 1.27 | 0.15 | 98 | 1011.8 |
| 20260903161850 | 10 | 25 | 0.0 | 8.0 | 0.03 | 1.27 | 0.15 | 98 | 1011.8 |
| 20260903161351 | 10 | 25 | 0.0 | 8.0 | 0.00 | 1.24 | 0.13 | 98 | 1011.8 |
| 20260903160840 | 10 | 130 | 0.0 | 8.0 | 0.00 | 1.24 | 0.13 | 98 | 1011.8 |
| 20260903160552 | 10 | 44 | 0.0 | 8.0 | 0.00 | 1.24 | 0.13 | 98 | 1011.8 |
| 20260903160059 | 10 | 191 | 0.0 | 11.3 | 0.00 | 1.24 | 0.13 | 98 | 1011.8 |
| 20260903155335 | 10 | 109 | 0.0 | 11.3 | 0.00 | 1.24 | 0.13 | 98 | 1011.7 |
| 20260903154831 | 10 | 143 | 0.0 | 6.4 | 0.03 | 1.24 | 0.13 | 98 | 1011.6 |
| 20260903154327 | 10 | 143 | 1.6 | 6.4 | 0.03 | 1.24 | 0.13 | 98 | 1011.6 |
| 20260903153820 | 10 | 343 | 0.0 | 4.8 | 0.03 | 1.24 | 0.13 | 98 | 1011.6 |
| 20260903153322 | 10 | 223 | 0.0 | 9.7 | 0.03 | 1.24 | 0.13 | 98 | 1011.6 |
| 20260903152821 | 10 | 233 | 1.6 | 9.7 | 0.03 | 1.24 | 0.13 | 98 | 1011.5 |
| 20260903152311 | 10 | 11 | 0.0 | 4.8 | 0.03 | 1.24 | 0.13 | 98 | 1011.5 |
| 20260903151811 | 10 | 277 | 0.0 | 3.2 | 0.03 | 1.24 | 0.13 | 98 | 1011.5 |
| 20260903151312 | 10 | 309 | 0.0 | 4.8 | 0.05 | 1.24 | 0.13 | 98 | 1011.5 |
| 20260903150812 | 10 | 309 | 0.0 | 4.8 | 0.05 | 1.24 | 0.13 | 98 | 1011.5 |
| 20260903150307 | 10 | 263 | 0.0 | 0.0 | 0.08 | 1.24 | 0.13 | 98 | 1011.5 |
| 20260903145809 | 10 | 263 | 0.0 | 0.0 | 0.08 | 1.24 | 0.13 | 98 | 1011.5 |
| 20260903145518 | 10 | 263 | 0.0 | 1.6 | 0.08 | 1.22 | 0.10 | 98 | 1011.5 |
| 20260903145400 | 10 | 263 | 0.0 | 1.6 | 0.08 | 1.24 | 0.13 | 98 | 1011.5 |
| 20260903144253 | 10 | 263 | 0.0 | 0.0 | 0.08 | 1.22 | 0.10 | 98 | 1011.5 |
| 20260903143750 | 10 | 263 | 0.0 | 0.0 | 0.08 | 1.22 | 0.10 | 98 | 1011.5 |
| 20260903143248 | 10 | 263 | 0.0 | 0.0 | 0.08 | 1.22 | 0.10 | 98 | 1011.5 |
| 20260903142747 | 10 | 263 | 0.0 | 0.0 | 0.08 | 1.22 | 0.10 | 98 | 1011.4 |
| 20260903142247 | 10 | 263 | 0.0 | 1.6 | 0.10 | 1.22 | 0.10 | 98 | 1011.4 |
| 20260903141733 | 10 | 263 | 0.0 | 1.6 | 0.10 | 1.22 | 0.10 | 97 | 1011.4 |
| 20260903141233 | 9 | 262 | 0.0 | 0.0 | 0.08 | 1.19 | 0.08 | 97 | 1011.4 |
| 20260903140733 | 9 | 262 | 0.0 | 0.0 | 0.05 | 1.17 | 0.08 | 98 | 1011.4 |
| 20260903140233 | 9 | 262 | 0.0 | 0.0 | 0.05 | 1.17 | 0.05 | 98 | 1011.4 |
| 20260903135734 | 9 | 262 | 0.0 | 0.0 | 0.05 | 1.17 | 0.05 | 97 | 1011.4 |
| 20260903135448 | 9 | 262 | 0.0 | 0.0 | 0.05 | 1.17 | 0.05 | 97 | 1011.2 |
| 20260903134724 | 9 | 262 | 0.0 | 0.0 | 0.03 | 1.14 | 0.03 | 97 | 1011.4 |
| 20260903134223 | 9 | 262 | 0.0 | 0.0 | 0.03 | 1.14 | 0.03 | 97 | 1011.2 |
| 20260903134210 | 9 | 262 | 0.0 | 0.0 | 0.03 | 1.14 | 0.03 | 97 | 1011.1 |
| 20260903133215 | 9 | 262 | 0.0 | 0.0 | 0.03 | 1.14 | 0.03 | 97 | 1011.1 |
| 20260903132709 | 9 | 262 | 0.0 | 0.0 | 0.03 | 1.14 | 0.03 | 97 | 1011.1 |
| 20260903132205 | 9 | 262 | 0.0 | 0.0 | 0.00 | 1.12 | 0.00 | 97 | 1011.0 |
| 20260903131706 | 9 | 262 | 0.0 | 0.0 | 0.00 | 1.12 | 0.00 | 97 | 1011.0 |
| 20260903131155 | 9 | 262 | 0.0 | 0.0 | 0.00 | 1.12 | 0.00 | 97 | 1010.9 |
| 20260903130644 | 9 | 262 | 0.0 | 0.0 | 0.00 | 1.12 | 0.00 | 97 | 1010.9 |
| 20260903130146 | 9 | 262 | 0.0 | 0.0 | 0.00 | 1.12 | 0.00 | 97 | 1010.7 |
| 20260903125908 | 9 | 262 | 0.0 | 0.0 | 0.00 | 1.12 | 0.00 | 97 | 1010.7 |
| 20260903125146 | 9 | 262 | 0.0 | 0.0 | 0.00 | 1.12 | 0.00 | 97 | 1010.8 |
| 20260903124648 | 9 | 262 | 0.0 | 0.0 | 0.00 | 1.12 | 0.00 | 97 | 1010.6 |
| 20260903124144 | 9 | 262 | 0.0 | 0.0 | 0.00 | 1.12 | 0.00 | 97 | 1010.6 |
| 20260903123635 | 9 | 262 | 0.0 | 0.0 | 0.00 | 1.12 | 0.00 | 97 | 1010.5 |
| 20260903123137 | 9 | 262 | 0.0 | 0.0 | 0.00 | 1.12 | 0.00 | 97 | 1010.6 |
| 20260903122636 | 9 | 262 | 0.0 | 0.0 | 0.00 | 1.12 | 0.00 | 97 | 1010.5 |
| 20260903122135 | 9 | 262 | 0.0 | 0.0 | 0.00 | 1.12 | 0.00 | 97 | 1010.5 |
| 20260903121627 | 9 | 262 | 0.0 | 0.0 | 0.00 | 1.12 | 0.00 | 97 | 1010.5 |
| 20260903121127 | 9 | 262 | 0.0 | 0.0 | 0.00 | 1.12 | 0.00 | 97 | 1010.5 |
| 20260903120626 | 9 | 262 | 0.0 | 0.0 | 0.00 | 1.12 | 0.00 | 97 | 1010.7 |
| 20260903120119 | 9 | 262 | 0.0 | 0.0 | 0.00 | 1.12 | 0.00 | 97 | 1010.7 |
| 20260903115615 | 9 | 262 | 0.0 | 0.0 | 0.00 | 1.12 | 0.00 | 97 | 1010.7 |
| 20260903115111 | 9 | 262 | 0.0 | 0.0 | 0.00 | 1.12 | 0.00 | 97 | 1010.6 |
| 20260903114611 | 9 | 262 | 0.0 | 0.0 | 0.00 | 1.12 | 0.00 | 97 | 1010.6 |
| 20260903114112 | 9 | 262 | 0.0 | 0.0 | 0.00 | 1.12 | 0.00 | 97 | 1010.6 |
| 20260903113602 | 9 | 262 | 0.0 | 0.0 | 0.00 | 1.12 | 0.00 | 97 | 1010.6 |
| 20260903113540 | 9 | 262 | 0.0 | 0.0 | 0.00 | 1.12 | 0.00 | 97 | 1010.3 |
| 20260903112547 | 9 | 262 | 0.0 | 0.0 | 0.00 | 1.12 | 0.00 | 97 | 1010.3 |
| 20260903112043 | 9 | 262 | 0.0 | 0.0 | 0.00 | 1.12 | 0.00 | 97 | 1010.2 |
| 20260903111538 | 9 | 262 | 0.0 | 0.0 | 0.00 | 1.12 | 0.00 | 97 | 1010.2 |
| 20260903111038 | 9 | 262 | 0.0 | 0.0 | 0.00 | 1.12 | 0.00 | 97 | 1010.5 |
| 20260903110537 | 9 | 262 | 0.0 | 0.0 | 0.00 | 1.12 | 0.00 | 97 | 1010.7 |
| 20260903110034 | 9 | 262 | 0.0 | 0.0 | 0.00 | 1.12 | 0.00 | 97 | 1010.7 |
| 20260903105533 | 9 | 262 | 0.0 | 0.0 | 0.00 | 1.12 | 0.00 | 97 | 1010.8 |
| 20260903105252 | 9 | 262 | 0.0 | 0.0 | 0.00 | 1.12 | 0.00 | 97 | 1010.7 |
| 20260903104528 | 9 | 262 | 0.0 | 0.0 | 0.00 | 1.12 | 0.00 | 97 | 1010.7 |
| 20260903104014 | 9 | 262 | 0.0 | 0.0 | 0.00 | 1.12 | 0.00 | 97 | 1010.6 |
| 20260903103508 | 9 | 262 | 0.0 | 0.0 | 0.00 | 1.12 | 0.00 | 97 | 1010.6 |
| 20260903103004 | 9 | 262 | 0.0 | 0.0 | 0.00 | 1.12 | 0.00 | 97 | 1010.7 |
| 20260903102444 | 9 | 262 | 0.0 | 0.0 | 0.00 | 1.12 | 0.00 | 97 | 1010.5 |
| 20260903101938 | 9 | 262 | 0.0 | 0.0 | 0.00 | 1.12 | 0.00 | 97 | 1010.6 |
| 20260903101650 | 9 | 262 | 0.0 | 0.0 | 0.00 | 1.12 | 0.00 | 97 | 1010.5 |
| 20260903100923 | 9 | 262 | 0.0 | 0.0 | 0.00 | 1.12 | 0.00 | 97 | 1010.5 |
| 20260903100653 | 9 | 262 | 0.0 | 0.0 | 0.00 | 1.12 | 0.00 | 97 | 1010.3 |
| 20260903100133 | 8 | 262 | 0.0 | 0.0 | 0.00 | 1.12 | 0.00 | 97 | 1010.3 |
| 20260903095354 | 8 | 262 | 0.0 | 0.0 | 0.00 | 1.12 | 0.00 | 97 | 1010.2 |
| 20260903094853 | 8 | 262 | 0.0 | 0.0 | 0.00 | 1.12 | 0.00 | 97 | 1010.3 |
| 20260903094353 | 8 | 262 | 0.0 | 0.0 | 0.00 | 1.12 | 0.00 | 97 | 1010.3 |
| 20260903093857 | 8 | 262 | 0.0 | 0.0 | 0.00 | 1.12 | 0.00 | 97 | 1010.3 |
| 20260903093354 | 8 | 262 | 0.0 | 0.0 | 0.00 | 1.12 | 0.00 | 97 | 1010.3 |
| 20260903092844 | 8 | 262 | 0.0 | 0.0 | 0.00 | 1.12 | 0.00 | 97 | 1010.3 |
| 20260903092334 | 8 | 262 | 0.0 | 0.0 | 0.00 | 1.12 | 0.00 | 97 | 1010.5 |
| 20260903091829 | 8 | 262 | 0.0 | 0.0 | 0.00 | 1.12 | 0.00 | 97 | 1010.1 |
| 20260903091315 | 8 | 262 | 0.0 | 0.0 | 0.00 | 1.12 | 0.00 | 97 | 1010.2 |
| 20260903090814 | 8 | 262 | 0.0 | 0.0 | 0.00 | 1.12 | 0.00 | 97 | 1010.3 |
| 20260903090310 | 8 | 262 | 0.0 | 0.0 | 0.00 | 1.12 | 0.00 | 97 | 1010.3 |
| 20260903085811 | 8 | 262 | 0.0 | 0.0 | 0.00 | 1.12 | 0.00 | 97 | 1010.3 |
| 20260903085310 | 8 | 262 | 0.0 | 0.0 | 0.00 | 1.12 | 0.00 | 97 | 1010.5 |
| 20260903084816 | 8 | 262 | 0.0 | 0.0 | 0.00 | 1.12 | 0.00 | 97 | 1010.3 |
| 20260903084310 | 8 | 262 | 0.0 | 0.0 | 0.00 | 1.12 | 0.00 | 97 | 1010.5 |
| 20260903084030 | 8 | 262 | 0.0 | 0.0 | 0.00 | 1.12 | 0.00 | 97 | 1010.6 |
| 20260903083305 | 8 | 262 | 0.0 | 0.0 | 0.00 | 1.12 | 0.00 | 97 | 1010.6 |
| 20260903082812 | 8 | 262 | 0.0 | 0.0 | 0.00 | 1.12 | 0.00 | 96 | 1010.6 |
| 20260903082301 | 8 | 262 | 0.0 | 0.0 | 0.00 | 1.12 | 0.00 | 96 | 1010.5 |
| 20260903081803 | 8 | 262 | 0.0 | 0.0 | 0.00 | 1.12 | 0.00 | 96 | 1010.3 |
| 20260903081246 | 8 | 262 | 0.0 | 0.0 | 0.00 | 1.12 | 0.00 | 96 | 1010.3 |
| 20260903080736 | 8 | 262 | 0.0 | 0.0 | 0.00 | 1.12 | 0.00 | 96 | 1010.3 |
| 20260903080237 | 8 | 262 | 0.0 | 0.0 | 0.00 | 1.12 | 0.00 | 96 | 1010.3 |
| 20260903075734 | 8 | 262 | 0.0 | 0.0 | 0.00 | 1.12 | 0.00 | 96 | 1010.5 |
| 20260903075227 | 8 | 262 | 0.0 | 0.0 | 0.00 | 1.12 | 0.00 | 96 | 1010.5 |
| 20260903074717 | 8 | 262 | 0.0 | 0.0 | 0.00 | 1.12 | 0.00 | 96 | 1010.5 |
| 20260903074216 | 8 | 262 | 0.0 | 0.0 | 0.00 | 1.12 | 0.00 | 96 | 1010.2 |
| 20260903073717 | 8 | 262 | 0.0 | 0.0 | 0.00 | 1.12 | 0.00 | 96 | 1010.2 |
| 20260903073217 | 8 | 262 | 0.0 | 0.0 | 0.00 | 1.12 | 0.00 | 96 | 1010.1 |
| 20260903072657 | 8 | 262 | 0.0 | 0.0 | 0.00 | 1.12 | 0.00 | 95 | 1010.2 |
| 20260903072417 | 8 | 262 | 0.0 | 0.0 | 0.00 | 1.12 | 0.00 | 95 | 1010.1 |
| 20260903071658 | 8 | 262 | 0.0 | 0.0 | 0.00 | 1.12 | 0.00 | 95 | 1010.0 |
| 20260903071150 | 8 | 262 | 0.0 | 0.0 | 0.00 | 1.12 | 0.00 | 95 | 1010.1 |
| 20260903070648 | 8 | 262 | 0.0 | 0.0 | 0.00 | 1.12 | 0.00 | 95 | 1010.2 |
| 20260903070147 | 8 | 262 | 0.0 | 0.0 | 0.00 | 1.12 | 0.00 | 95 | 1010.2 |
| 20260903065648 | 8 | 262 | 0.0 | 0.0 | 0.00 | 1.12 | 0.00 | 95 | 1010.0 |
| 20260903065138 | 8 | 262 | 0.0 | 0.0 | 0.00 | 1.12 | 0.00 | 95 | 1009.9 |
| 20260903064903 | 8 | 262 | 0.0 | 0.0 | 0.00 | 1.12 | 0.00 | 95 | 1009.9 |
| 20260903064134 | 8 | 262 | 0.0 | 0.0 | 0.00 | 1.12 | 0.00 | 95 | 1010.1 |
| 20260903063628 | 8 | 262 | 0.0 | 0.0 | 0.00 | 1.12 | 0.00 | 95 | 1010.1 |
| 20260903063124 | 8 | 262 | 0.0 | 0.0 | 0.00 | 1.12 | 0.00 | 95 | 1010.2 |
| 20260903062627 | 8 | 262 | 0.0 | 0.0 | 0.00 | 1.12 | 0.00 | 95 | 1010.2 |
| 20260903062124 | 8 | 262 | 0.0 | 0.0 | 0.00 | 1.12 | 0.00 | 95 | 1010.2 |
| 20260903061619 | 8 | 262 | 0.0 | 0.0 | 0.00 | 1.12 | 0.00 | 95 | 1010.2 |
| 20260903061119 | 8 | 262 | 0.0 | 0.0 | 0.00 | 1.12 | 0.00 | 95 | 1010.2 |
| 20260903061059 | 8 | 262 | 0.0 | 0.0 | 0.00 | 1.12 | 0.00 | 95 | 1010.2 |
| 20260903060059 | 9 | 262 | 0.0 | 0.0 | 0.00 | 1.12 | 0.00 | 95 | 1010.3 |
| 20260903055559 | 9 | 262 | 0.0 | 0.0 | 0.00 | 1.12 | 1.12 | 95 | 1010.2 |
| 20260903055100 | 9 | 262 | 0.0 | 0.0 | 0.00 | 1.12 | 1.12 | 95 | 1010.3 |
| 20260903054600 | 9 | 262 | 0.0 | 0.0 | 0.00 | 1.12 | 1.12 | 95 | 1010.5 |
| 20260903054103 | 9 | 262 | 0.0 | 0.0 | 0.00 | 1.12 | 1.12 | 95 | 1010.5 |
| 20260903053601 | 9 | 262 | 0.0 | 0.0 | 0.00 | 1.12 | 1.12 | 95 | 1010.6 |
| 20260903053045 | 9 | 262 | 0.0 | 0.0 | 0.00 | 1.12 | 1.12 | 95 | 1010.7 |
| 20260903052543 | 10 | 262 | 0.0 | 0.0 | 0.00 | 1.12 | 1.12 | 95 | 1010.7 |
| 20260903052306 | 10 | 262 | 0.0 | 0.0 | 0.00 | 1.12 | 1.12 | 95 | 1010.7 |
| 20260903051536 | 10 | 262 | 0.0 | 0.0 | 0.00 | 1.12 | 1.12 | 95 | 1010.7 |
| 20260903051036 | 10 | 262 | 0.0 | 0.0 | 0.00 | 1.12 | 1.12 | 95 | 1010.8 |
| 20260903050531 | 10 | 262 | 0.0 | 0.0 | 0.00 | 1.12 | 1.12 | 96 | 1010.8 |
| 20260903050021 | 10 | 262 | 0.0 | 0.0 | 0.00 | 1.12 | 1.12 | 96 | 1011.0 |
| 20260903045521 | 10 | 262 | 0.0 | 0.0 | 0.00 | 1.12 | 1.12 | 96 | 1011.0 |
| 20260903045022 | 10 | 262 | 0.0 | 0.0 | 0.00 | 1.12 | 1.12 | 96 | 1011.0 |
| 20260903044524 | 10 | 262 | 0.0 | 0.0 | 0.00 | 1.12 | 1.12 | 96 | 1011.1 |
| 20260903044016 | 10 | 262 | 0.0 | 0.0 | 0.00 | 1.12 | 1.12 | 96 | 1011.2 |
| 20260903043516 | 10 | 262 | 0.0 | 0.0 | 0.00 | 1.12 | 1.12 | 96 | 1011.4 |
| 20260903043017 | 10 | 262 | 0.0 | 0.0 | 0.00 | 1.12 | 1.12 | 96 | 1011.4 |
| 20260903042742 | 10 | 262 | 0.0 | 0.0 | 0.00 | 1.12 | 1.12 | 96 | 1011.4 |
| 20260903042239 | 10 | 262 | 0.0 | 0.0 | 0.00 | 1.12 | 1.12 | 96 | 1011.6 |
| 20260903041503 | 10 | 262 | 0.0 | 0.0 | 0.00 | 1.12 | 1.12 | 95 | 1011.5 |
| 20260903040957 | 10 | 262 | 0.0 | 0.0 | 0.00 | 1.12 | 1.12 | 95 | 1011.5 |
| 20260903040500 | 10 | 262 | 0.0 | 0.0 | 0.00 | 1.12 | 1.12 | 95 | 1011.6 |
| 20260903035957 | 10 | 262 | 0.0 | 0.0 | 0.00 | 1.12 | 1.12 | 95 | 1011.7 |
| 20260903035501 | 10 | 262 | 0.0 | 0.0 | 0.00 | 1.12 | 1.12 | 95 | 1011.7 |
| 20260903034948 | 10 | 262 | 0.0 | 0.0 | 0.00 | 1.12 | 1.12 | 95 | 1011.7 |
| 20260903034448 | 10 | 262 | 0.0 | 0.0 | 0.00 | 1.12 | 1.12 | 95 | 1011.7 |
| 20260903033933 | 10 | 262 | 0.0 | 0.0 | 0.00 | 1.12 | 1.12 | 95 | 1011.8 |
| 20260903033423 | 10 | 262 | 0.0 | 0.0 | 0.00 | 1.12 | 1.12 | 95 | 1011.8 |
| 20260903032917 | 10 | 262 | 0.0 | 0.0 | 0.00 | 1.12 | 1.12 | 95 | 1011.8 |
| 20260903032411 | 10 | 262 | 0.0 | 0.0 | 0.00 | 1.12 | 1.12 | 95 | 1011.8 |
| 20260903031906 | 10 | 262 | 0.0 | 0.0 | 0.00 | 1.12 | 1.12 | 95 | 1011.7 |
| 20260903031359 | 10 | 262 | 0.0 | 0.0 | 0.00 | 1.12 | 1.12 | 95 | 1011.8 |
| 20260903030854 | 10 | 262 | 0.0 | 0.0 | 0.00 | 1.12 | 1.12 | 95 | 1011.7 |
| 20260903030343 | 10 | 262 | 0.0 | 0.0 | 0.00 | 1.12 | 1.12 | 95 | 1011.7 |
| 20260903025844 | 10 | 262 | 0.0 | 0.0 | 0.00 | 1.12 | 1.12 | 95 | 1011.6 |
| 20260903025344 | 10 | 262 | 0.0 | 0.0 | 0.00 | 1.12 | 1.12 | 95 | 1011.6 |
| 20260903024844 | 10 | 262 | 0.0 | 0.0 | 0.00 | 1.12 | 1.12 | 94 | 1011.5 |
| 20260903024829 | 10 | 262 | 0.0 | 0.0 | 0.00 | 1.12 | 1.12 | 94 | 1011.5 |
| 20260903023844 | 10 | 262 | 0.0 | 0.0 | 0.00 | 1.12 | 1.12 | 94 | 1011.5 |
| 20260903023342 | 10 | 262 | 0.0 | 0.0 | 0.00 | 1.12 | 1.12 | 94 | 1011.4 |
| 20260903022830 | 10 | 262 | 0.0 | 0.0 | 0.00 | 1.12 | 1.12 | 95 | 1011.4 |
| 20260903022330 | 10 | 262 | 0.0 | 0.0 | 0.00 | 1.12 | 1.12 | 95 | 1011.2 |
| 20260903021833 | 10 | 262 | 0.0 | 0.0 | 0.00 | 1.12 | 1.12 | 94 | 1011.2 |
| 20260903021321 | 10 | 262 | 0.0 | 0.0 | 0.00 | 1.12 | 1.12 | 94 | 1011.2 |
| 20260903020821 | 10 | 262 | 0.0 | 0.0 | 0.00 | 1.12 | 1.12 | 94 | 1011.2 |
| 20260903020321 | 10 | 262 | 0.0 | 0.0 | 0.00 | 1.12 | 1.12 | 94 | 1011.2 |
| 20260903015815 | 10 | 262 | 0.0 | 0.0 | 0.03 | 1.12 | 1.12 | 94 | 1011.2 |
| 20260903015316 | 10 | 262 | 0.0 | 0.0 | 0.03 | 1.12 | 1.12 | 94 | 1011.2 |
| 20260903014816 | 10 | 262 | 0.0 | 0.0 | 0.03 | 1.12 | 1.12 | 94 | 1011.1 |
| 20260903014311 | 11 | 262 | 0.0 | 1.6 | 0.05 | 1.12 | 1.12 | 94 | 1011.1 |
| 20260903013814 | 11 | 262 | 0.0 | 1.6 | 0.05 | 1.12 | 1.12 | 94 | 1011.1 |
| 20260903013801 | 11 | 261 | 0.0 | 1.6 | 0.08 | 1.12 | 1.12 | 94 | 1011.1 |
| 20260903012757 | 11 | 261 | 0.0 | 3.2 | 0.08 | 1.12 | 1.12 | 94 | 1011.1 |
| 20260903012257 | 11 | 260 | 0.0 | 3.2 | 0.10 | 1.12 | 1.12 | 94 | 1011.1 |
| 20260903011757 | 11 | 260 | 0.0 | 0.0 | 0.13 | 1.12 | 1.12 | 94 | 1011.1 |
| 20260903011515 | 11 | 260 | 0.0 | 3.2 | 0.15 | 1.12 | 1.12 | 94 | 1011.1 |
| 20260903010757 | 11 | 260 | 0.0 | 3.2 | 0.15 | 1.12 | 1.12 | 94 | 1011.1 |
| 20260903010257 | 11 | 0 | 0.0 | 3.2 | 0.20 | 1.12 | 1.12 | 95 | 1011.2 |
| 20260903005752 | 11 | 347 | 0.0 | 0.0 | 0.20 | 1.09 | 1.09 | 95 | 1011.1 |
| 20260903005245 | 11 | 347 | 0.0 | 1.6 | 0.25 | 1.09 | 1.09 | 95 | 1011.2 |
| 20260903004954 | 11 | 347 | 0.0 | 1.6 | 0.30 | 1.09 | 1.09 | 95 | 1011.4 |
| 20260903004227 | 11 | 347 | 0.0 | 0.0 | 0.33 | 1.07 | 1.07 | 95 | 1011.4 |
| 20260903003949 | 11 | 347 | 0.0 | 0.0 | 0.36 | 1.07 | 1.07 | 94 | 1011.4 |
| 20260903003228 | 11 | 347 | 0.0 | 0.0 | 0.38 | 1.04 | 1.04 | 94 | 1011.5 |
| 20260903002912 | 11 | 347 | 0.0 | 0.0 | 0.41 | 0.99 | 0.99 | 94 | 1011.6 |
| 20260903002751 | 11 | 347 | 0.0 | 0.0 | 0.41 | 1.04 | 1.04 | 94 | 1011.5 |
| 20260903002307 | 11 | 347 | 0.0 | 0.0 | 0.41 | 1.02 | 1.02 | 94 | 1011.6 |
| 20260903001218 | 11 | 347 | 0.0 | 0.0 | 0.41 | 0.97 | 0.97 | 94 | 1011.6 |
| 20260903000939 | 11 | 347 | 0.0 | 0.0 | 0.41 | 0.94 | 0.97 | 94 | 1011.6 |
| 20260902235717 | 11 | 347 | 0.0 | 8.0 | 0.38 | 0.89 | 0.89 | 93 | 1011.5 |
| 20260902235214 | 11 | 51 | 0.0 | 6.4 | 0.33 | 0.84 | 0.84 | 93 | 1011.5 |
| 20260902234710 | 11 | 341 | 1.6 | 12.9 | 0.28 | 0.79 | 0.79 | 93 | 1011.6 |
| 20260902234209 | 11 | 178 | 3.2 | 12.9 | 0.23 | 0.74 | 0.74 | 93 | 1011.6 |
| 20260902233704 | 11 | 137 | 1.6 | 9.7 | 0.20 | 0.69 | 0.71 | 93 | 1011.4 |
| 20260902233205 | 11 | 261 | 0.0 | 9.7 | 0.18 | 0.66 | 0.66 | 93 | 1011.4 |
| 20260902232705 | 11 | 56 | 1.6 | 11.3 | 0.18 | 0.64 | 0.64 | 93 | 1011.2 |
| 20260902232206 | 11 | 171 | 1.6 | 11.3 | 0.20 | 0.61 | 0.61 | 93 | 1011.4 |
| 20260902231705 | 11 | 260 | 1.6 | 19.3 | 0.20 | 0.58 | 0.58 | 92 | 1011.4 |
| 20260902231427 | 11 | 162 | 3.2 | 20.9 | 0.20 | 0.56 | 0.56 | 92 | 1011.4 |
| 20260902230706 | 11 | 179 | 6.4 | 20.9 | 0.20 | 0.53 | 0.53 | 92 | 1011.2 |
| 20260902230201 | 11 | 223 | 3.2 | 25.7 | 0.25 | 0.53 | 0.53 | 92 | 1011.0 |
| 20260902225700 | 11 | 169 | 6.4 | 25.7 | 0.25 | 0.51 | 0.51 | 92 | 1011.1 |
| 20260902225201 | 11 | 168 | 4.8 | 17.7 | 0.30 | 0.51 | 0.51 | 92 | 1010.9 |
| 20260902224701 | 11 | 0 | 6.4 | 25.7 | 0.38 | 0.51 | 0.51 | 92 | 1010.6 |
| 20260902224201 | 11 | 42 | 6.4 | 25.7 | 0.46 | 0.51 | 0.51 | 92 | 1010.7 |
| 20260902223701 | 11 | 152 | 6.4 | 22.5 | 0.46 | 0.48 | 0.48 | 92 | 1010.7 |
| 20260902223201 | 11 | 169 | 4.8 | 27.4 | 0.46 | 0.48 | 0.48 | 92 | 1010.6 |
| 20260902222657 | 11 | 263 | 4.8 | 29.0 | 0.43 | 0.46 | 0.46 | 92 | 1010.3 |
| 20260902222157 | 12 | 37 | 8.0 | 29.0 | 0.41 | 0.41 | 0.41 | 92 | 1010.2 |
| 20260902221656 | 12 | 152 | 8.0 | 30.6 | 0.38 | 0.38 | 0.38 | 92 | 1010.2 |
| 20260902221157 | 12 | 327 | 9.7 | 30.6 | 0.36 | 0.36 | 0.36 | 92 | 1009.9 |
| 20260902220657 | 12 | 310 | 9.7 | 27.4 | 0.33 | 0.33 | 0.33 | 91 | 1009.7 |
| 20260902220157 | 12 | 101 | 11.3 | 29.0 | 0.28 | 0.28 | 0.30 | 91 | 1009.5 |
| 20260902215657 | 12 | 263 | 12.9 | 29.0 | 0.25 | 0.25 | 0.25 | 90 | 1009.5 |
| 20260902215157 | 12 | 342 | 9.7 | 33.8 | 0.20 | 0.20 | 0.20 | 89 | 1009.7 |
| 20260902214700 | 12 | 49 | 6.4 | 33.8 | 0.10 | 0.10 | 0.13 | 88 | 1009.2 |
| 20260902214419 | 13 | 241 | 12.9 | 29.0 | 0.05 | 0.05 | 0.05 | 86 | 1009.3 |
| 20260902213652 | 13 | 74 | 12.9 | 27.4 | 0.03 | 0.03 | 0.03 | 84 | 1009.2 |
| 20260902213153 | 13 | 207 | 12.9 | 38.6 | 0.03 | 0.03 | 0.03 | 83 | 1009.3 |
| 20260902212915 | 15 | 344 | 9.7 | 38.6 | 0.03 | 0.03 | 0.03 | 81 | 1009.0 |
| 20260902212509 | 15 | 342 | 11.3 | 35.4 | 0.00 | 0.00 | 0.00 | 77 | 1008.2 |
| 20260902212402 | 16 | 150 | 14.5 | 38.6 | 0.00 | 0.00 | 0.00 | 73 | 1008.5 |
| 20260902211149 | 16 | 205 | 11.3 | 41.8 | 0.00 | 0.00 | 0.00 | 70 | 1008.2 |
| 20260902210905 | 17 | 322 | 14.5 | 41.8 | 0.00 | 0.00 | 0.00 | 67 | 1007.9 |
| 20260902210143 | 18 | 339 | 6.4 | 45.1 | 0.00 | 0.00 | 0.00 | 62 | 1007.2 |
| 20260902205644 | 19 | 242 | 9.7 | 45.1 | 0.00 | 0.00 | 0.00 | 59 | 1007.4 |
| 20260902205144 | 20 | 54 | 9.7 | 27.4 | 0.00 | 0.00 | 0.00 | 56 | 1007.4 |
| 20260902204908 | 21 | 321 | 4.8 | 20.9 | 0.00 | 0.00 | 0.00 | 55 | 1007.1 |
| 20260902204144 | 22 | 326 | 4.8 | 20.9 | 0.00 | 0.00 | 0.00 | 53 | 1007.1 |
| 20260902203900 | 22 | 342 | 1.6 | 11.3 | 0.00 | 0.00 | 0.00 | 53 | 1006.9 |
| 20260902203405 | 22 | 33 | 4.8 | 12.9 | 0.00 | 0.00 | 0.00 | 51 | 1007.0 |
| 20260902202640 | 22 | 71 | 3.2 | 12.9 | 0.00 | 0.00 | 0.00 | 51 | 1006.9 |
| 20260902202140 | 22 | 214 | 3.2 | 17.7 | 0.00 | 0.00 | 0.00 | 51 | 1006.8 |
| 20260902201904 | 22 | 24 | 4.8 | 17.7 | 0.00 | 0.00 | 0.00 | 53 | 1007.0 |
| 20260902201136 | 22 | 348 | 1.6 | 25.7 | 0.00 | 0.00 | 0.00 | 52 | 1007.0 |
| 20260902200636 | 22 | 183 | 6.4 | 25.7 | 0.00 | 0.00 | 0.00 | 50 | 1006.8 |
| 20260902200136 | 22 | 134 | 0.0 | 9.7 | 0.00 | 0.00 | 0.00 | 51 | 1006.8 |
| 20260902195635 | 22 | 209 | 3.2 | 9.7 | 0.00 | 0.00 | 0.00 | 49 | 1006.8 |
| 20260902195136 | 22 | 26 | 1.6 | 17.7 | 0.00 | 0.00 | 0.00 | 50 | 1006.9 |
| 20260902194859 | 23 | 325 | 0.0 | 17.7 | 0.00 | 0.00 | 0.00 | 50 | 1007.0 |
| 20260902194136 | 23 | 11 | 1.6 | 14.5 | 0.00 | 0.00 | 0.00 | 48 | 1007.1 |
| 20260902193632 | 23 | 326 | 1.6 | 12.9 | 0.00 | 0.00 | 0.00 | 47 | 1007.3 |
| 20260902193127 | 23 | 5 | 3.2 | 12.9 | 0.00 | 0.00 | 0.00 | 48 | 1007.3 |
| 20260902192621 | 23 | 240 | 1.6 | 16.1 | 0.00 | 0.00 | 0.00 | 49 | 1007.3 |
| 20260902192122 | 23 | 339 | 4.8 | 16.1 | 0.00 | 0.00 | 0.00 | 47 | 1007.4 |